TimeCST,TemperatureF,Dew PointF,Humidity,Sea Level PressureIn,VisibilityMPH,Wind Direction,Wind SpeedMPH,Gust SpeedMPH,PrecipitationIn,Events,Conditions,WindDirDegrees,DateUTC
12:52 AM,26.1,21.0,81,30.01,8.0,WNW,18.4,-,N/A,,Clear,290,2013-01-06 06:52:00
1:52 AM,24.1,19.0,81,30.03,8.0,WNW,17.3,-,N/A,,Clear,290,2013-01-06 07:52:00
2:52 AM,21.9,17.1,82,30.05,7.0,WNW,19.6,25.3,N/A,,Clear,290,2013-01-06 08:52:00
3:17 AM,21.2,17.6,86,30.03,5.0,West,19.6,-,N/A,,Mostly Cloudy,280,2013-01-06 09:17:00
3:52 AM,21.9,17.1,82,30.06,5.0,WNW,21.9,26.5,N/A,,Haze,290,2013-01-06 09:52:00
4:24 AM,19.4,15.8,86,30.05,6.0,NW,18.4,-,N/A,,Haze,310,2013-01-06 10:24:00
4:52 AM,18.0,12.9,81,30.10,6.0,WNW,20.7,28.8,N/A,,Haze,300,2013-01-06 10:52:00
5:06 AM,17.6,12.2,79,30.07,5.0,WNW,16.1,-,N/A,,Haze,300,2013-01-06 11:06:00
5:52 AM,16.0,10.9,81,30.12,6.0,WNW,15.0,-,N/A,,Haze,300,2013-01-06 11:52:00
6:52 AM,15.1,10.9,84,30.15,5.0,WNW,13.8,-,N/A,,Clear,290,2013-01-06 12:52:00
7:48 AM,15.8,10.4,79,30.14,4.0,WNW,16.1,24.2,N/A,,Mostly Cloudy,300,2013-01-06 13:48:00
7:52 AM,16.0,10.9,81,30.17,4.0,WNW,15.0,-,N/A,,Haze,300,2013-01-06 13:52:00
8:52 AM,17.1,12.0,81,30.20,5.0,WNW,12.7,-,N/A,,Haze,290,2013-01-06 14:52:00
9:52 AM,19.0,15.1,85,30.23,5.0,WNW,16.1,-,N/A,,Mostly Cloudy,290,2013-01-06 15:52:00
10:12 AM,19.4,15.8,86,30.21,5.0,West,17.3,-,N/A,,Mostly Cloudy,280,2013-01-06 16:12:00
10:31 AM,19.4,15.8,86,30.22,4.0,WNW,19.6,24.2,N/A,,Mostly Cloudy,290,2013-01-06 16:31:00
10:52 AM,19.0,17.1,92,30.26,2.5,WNW,16.1,-,N/A,,Overcast,290,2013-01-06 16:52:00
11:27 AM,19.4,17.6,93,30.22,3.0,WNW,15.0,-,N/A,,Overcast,300,2013-01-06 17:27:00
11:52 AM,21.0,18.0,88,30.27,4.0,NW,13.8,-,N/A,,Overcast,310,2013-01-06 17:52:00
12:52 PM,21.9,18.0,85,30.26,5.0,WNW,12.7,-,N/A,,Overcast,290,2013-01-06 18:52:00
1:05 PM,23.0,17.6,80,30.22,6.0,WNW,13.8,-,N/A,,Haze,300,2013-01-06 19:05:00
1:16 PM,23.0,17.6,80,30.23,7.0,WNW,15.0,-,N/A,,Partly Cloudy,290,2013-01-06 19:16:00
1:52 PM,25.0,18.0,75,30.26,9.0,WNW,15.0,-,N/A,,Clear,290,2013-01-06 19:52:00
2:52 PM,26.1,18.0,71,30.29,10.0,WNW,11.5,-,N/A,,Clear,290,2013-01-06 20:52:00
3:52 PM,25.0,15.1,66,30.31,10.0,WNW,11.5,-,N/A,,Clear,290,2013-01-06 21:52:00
4:52 PM,23.0,15.1,72,30.32,10.0,NW,4.6,-,N/A,,Clear,310,2013-01-06 22:52:00
5:52 PM,21.0,15.1,78,30.34,10.0,West,5.8,-,N/A,,Clear,280,2013-01-06 23:52:00
6:52 PM,17.1,12.9,84,30.36,10.0,Calm,Calm,-,N/A,,Clear,0,2013-01-07 00:52:00
7:52 PM,18.0,12.0,78,30.35,10.0,SW,3.5,-,N/A,,Clear,220,2013-01-07 01:52:00
8:52 PM,16.0,12.0,84,30.35,10.0,SSW,3.5,-,N/A,,Clear,200,2013-01-07 02:52:00
9:52 PM,16.0,10.9,81,30.35,10.0,South,3.5,-,N/A,,Clear,180,2013-01-07 03:52:00
10:52 PM,17.1,12.0,81,30.34,10.0,SSE,4.6,-,N/A,,Clear,160,2013-01-07 04:52:00
11:52 PM,14.0,10.0,84,30.34,10.0,SSE,5.8,-,N/A,,Clear,160,2013-01-07 05:52:00